リニア-スキッフ彗星

P/2001 R6 ( LINEAR-Skiff )

English version
Home page
Updated on January 20, 2013

---------------------------------------------------------------------

・ プロフィール

発見日 2001年9月11日, 9月25日
発見光度 17.0等
発見者 Lincoln Laboratory Near-Earth Asteroid Research project, B. A. Skiff (Lowell Observatory)

・ 軌道要素

Epoch 2001 Oct. 18.0 TT = JDT 2452200.5
T 2001 Oct. 27.09083 TT                                 MPC
q   2.1150763            (2000.0)            P               Q
n   0.11809586     Peri.  306.19151     +0.92419487     -0.25896647
a   4.1144610      Node    70.32248     +0.36783650     +0.80131717
e   0.4859409      Incl.   17.34492     -0.10276260     +0.53928394
P   8.35
From 91 observations 2001 Aug. 19-2002 Feb. 1, mean residual 0".6.

・ 星図

・ 光度変化

        m1 = 6.8 + 5 logΔ + 30.0 log r

---------------------------------------------------------------------

軌道要素はM.P.E.C. 2013-A29に掲載されたものです。
星図は StellaNavigator Ver.2.0 for Windows (アストロアーツ 編著 / アスキー出版局刊) で作成したものです。
光度グラフはComet for Windowsで作成したものです。

---------------------------------------------------------------------

Copyright(C) Seiichi Yoshida (comet@aerith.net). All rights reserved.